| Date | Time | Temp. (oF) | Dew Point (oF) | Rel. Hum. (%) | Press. (in.) | Wind Dir. | Wind Speed (mph) | Hourly Rainfall (in.) |
|
|---|---|---|---|---|---|---|---|---|---|
| 1 | 01/19 | 00:00 | 34 | 32 | 96 | 30.10 | E | 0 | 0.00 |
| 2 | 01/18 | 23:00 | 35 | 33 | 96 | 30.11 | N | 2 | 0.00 |
| 3 | 01/18 | 22:00 | 35 | 33 | 95 | 30.13 | NE | 0 | 0.00 |
| 4 | 01/18 | 21:00 | 34 | 32 | 96 | 30.12 | NE | 1 | 0.00 |
| 5 | 01/18 | 20:00 | 34 | 32 | 95 | 30.13 | ESE | 1 | 0.00 |
| 6 | 01/18 | 19:00 | 34 | 32 | 95 | 30.14 | NE | 4 | 0.00 |
| 7 | 01/18 | 18:00 | 34 | 32 | 94 | 30.17 | NE | 2 | 0.01 |
| 8 | 01/18 | 17:00 | 35 | 33 | 93 | 30.16 | NE | 0 | 0.00 |
| 9 | 01/18 | 16:00 | 35 | 33 | 94 | 30.14 | ESE | 1 | 0.00 |
| 10 | 01/18 | 15:00 | 35 | 32 | 92 | 30.17 | ESE | 2 | 0.00 |
| 11 | 01/18 | 14:00 | 35 | 32 | 91 | 30.19 | ESE | 0 | 0.01 |
| 12 | 01/18 | 13:00 | 35 | 32 | 91 | 30.21 | E | 0 | 0.00 |
| 13 | 01/18 | 12:00 | 35 | 32 | 92 | 30.25 | SSE | 3 | 0.02 |
| 14 | 01/18 | 11:00 | 35 | 32 | 90 | 30.27 | E | 1 | 0.01 |
| 15 | 01/18 | 10:00 | 34 | 31 | 89 | 30.28 | S | 3 | 0.00 |
| 16 | 01/18 | 09:00 | 33 | 28 | 85 | 30.26 | SSE | 2 | 0.00 |
| 17 | 01/18 | 08:00 | 33 | 29 | 86 | 30.27 | S | 1 | 0.00 |
| 18 | 01/18 | 07:00 | 32 | 28 | 88 | 30.28 | WSW | 1 | 0.00 |
| 19 | 01/18 | 06:00 | 31 | 28 | 90 | 30.24 | SE | 2 | 0.00 |
| 20 | 01/18 | 05:00 | 31 | 28 | 90 | 30.26 | NNE | 0 | 0.00 |
| 21 | 01/18 | 04:00 | 30 | 27 | 89 | 30.26 | N | 0 | 0.00 |
| 22 | 01/18 | 03:00 | 30 | 26 | 86 | 30.27 | NNW | 0 | 0.00 |
| 23 | 01/18 | 02:00 | 31 | 26 | 83 | 30.26 | WNW | 0 | 0.00 |
| 24 | 01/18 | 01:00 | 33 | 27 | 79 | 30.26 | WNW | 0 | 0.00 |